Year,Month,Day,Hour,Minute,Value (Times are PST for temperature in C)
2010,02,19,00,01,6.40
2010,02,19,00,02,6.40
2010,02,19,00,03,6.40
2010,02,19,00,04,6.40
2010,02,19,00,06,6.40
2010,02,19,00,07,6.50
2010,02,19,00,08,6.50
2010,02,19,00,09,6.50
2010,02,19,00,11,6.50
2010,02,19,00,12,6.60
2010,02,19,00,13,6.60
2010,02,19,00,14,6.60
2010,02,19,00,15,6.60
2010,02,19,00,17,6.60
2010,02,19,00,18,6.60
2010,02,19,00,20,6.60
2010,02,19,00,22,6.60
2010,02,19,00,23,6.60
2010,02,19,00,24,6.60
2010,02,19,00,25,6.60
2010,02,19,00,27,6.60
2010,02,19,00,28,6.60
2010,02,19,00,30,6.60
2010,02,19,00,31,6.50
2010,02,19,00,32,6.60
2010,02,19,00,33,6.60
2010,02,19,00,35,6.60
2010,02,19,00,36,6.60
2010,02,19,00,37,6.60
2010,02,19,00,39,6.60
2010,02,19,00,40,6.60
2010,02,19,00,41,6.70
2010,02,19,00,42,6.70
2010,02,19,00,43,6.70
2010,02,19,00,44,6.70
2010,02,19,00,46,6.70
2010,02,19,00,47,6.70
2010,02,19,00,48,6.70
2010,02,19,00,49,6.70
2010,02,19,00,51,6.70
2010,02,19,00,52,6.60
2010,02,19,00,53,6.60
2010,02,19,00,54,6.60
2010,02,19,00,56,6.60
2010,02,19,00,57,6.50
2010,02,19,00,58,6.50
2010,02,19,00,59,6.50
2010,02,19,01,02,6.50
2010,02,19,01,03,6.40
2010,02,19,01,04,6.40
2010,02,19,01,06,6.40
2010,02,19,01,07,6.50
2010,02,19,01,08,6.50
2010,02,19,01,09,6.50
2010,02,19,01,12,6.50
2010,02,19,01,13,6.60
2010,02,19,01,14,6.60
2010,02,19,01,15,6.60
2010,02,19,01,17,6.60
2010,02,19,01,18,6.60
2010,02,19,01,20,6.60
2010,02,19,01,22,6.60
2010,02,19,01,23,6.60
2010,02,19,01,24,6.60
2010,02,19,01,25,6.60
2010,02,19,01,27,6.60
2010,02,19,01,28,6.60
2010,02,19,01,30,6.60
2010,02,19,01,31,6.60
2010,02,19,01,32,6.60
2010,02,19,01,34,6.60
2010,02,19,01,35,6.60
2010,02,19,01,36,6.60
2010,02,19,01,37,6.60
2010,02,19,01,38,6.60
2010,02,19,01,40,6.60
2010,02,19,01,41,6.60
2010,02,19,01,42,6.60
2010,02,19,01,43,6.60
2010,02,19,01,44,6.60
2010,02,19,01,46,6.60
2010,02,19,01,47,6.60
2010,02,19,01,48,6.60
2010,02,19,01,50,6.60
2010,02,19,01,52,6.60
2010,02,19,01,53,6.60
2010,02,19,01,54,6.60
2010,02,19,01,55,6.70
2010,02,19,01,56,6.70
2010,02,19,01,58,6.70
2010,02,19,02,00,6.60
2010,02,19,02,01,6.60
2010,02,19,02,03,6.60
2010,02,19,02,04,6.60
2010,02,19,02,05,6.60
2010,02,19,02,06,6.60
2010,02,19,02,08,6.60
2010,02,19,02,09,6.60
2010,02,19,02,10,6.60
2010,02,19,02,11,6.50
2010,02,19,02,12,6.50
2010,02,19,02,14,6.40
2010,02,19,02,15,6.40
2010,02,19,02,16,6.40
2010,02,19,02,17,6.40
2010,02,19,02,18,6.40
2010,02,19,02,20,6.40
2010,02,19,02,21,6.30
2010,02,19,02,22,6.30
2010,02,19,02,23,6.30
2010,02,19,02,24,6.30
2010,02,19,02,26,6.30
2010,02,19,02,27,6.30
2010,02,19,02,28,6.30
2010,02,19,02,30,6.20
2010,02,19,02,31,6.20
2010,02,19,02,33,6.10
2010,02,19,02,34,6.10
2010,02,19,02,35,6.10
2010,02,19,02,36,6.00
2010,02,19,02,37,6.00
2010,02,19,02,39,5.90
2010,02,19,02,40,5.90
2010,02,19,02,41,5.80
2010,02,19,02,42,5.80
2010,02,19,02,43,5.80
2010,02,19,02,44,5.80
2010,02,19,02,46,5.70
2010,02,19,02,47,5.70
2010,02,19,02,48,5.70
2010,02,19,02,49,5.70
2010,02,19,02,52,5.70
2010,02,19,02,53,5.70
2010,02,19,02,54,5.60
2010,02,19,02,55,5.60
2010,02,19,02,57,5.60
2010,02,19,02,58,5.60
2010,02,19,03,00,5.60
2010,02,19,03,01,5.50
2010,02,19,03,03,5.50
2010,02,19,03,04,5.60
2010,02,19,03,05,5.60
2010,02,19,03,06,5.60
2010,02,19,03,08,5.60
2010,02,19,03,09,5.70
2010,02,19,03,10,5.70
2010,02,19,03,11,5.70
2010,02,19,03,13,5.80
2010,02,19,03,14,5.80
2010,02,19,03,15,5.80
2010,02,19,03,16,5.80
2010,02,19,03,18,5.80
2010,02,19,03,19,5.90
2010,02,19,03,20,5.90
2010,02,19,03,21,5.90
2010,02,19,03,22,5.90
2010,02,19,03,23,6.00
2010,02,19,03,25,6.00
2010,02,19,03,26,6.10
2010,02,19,03,27,6.10
2010,02,19,03,28,6.10
2010,02,19,03,30,6.10
2010,02,19,03,32,6.00
2010,02,19,03,33,6.10
2010,02,19,03,34,6.10
2010,02,19,03,35,6.10
2010,02,19,03,37,6.10
2010,02,19,03,38,6.10
2010,02,19,03,40,6.10
2010,02,19,03,41,6.10
2010,02,19,03,43,6.10
2010,02,19,03,44,6.10
2010,02,19,03,45,6.10
2010,02,19,03,46,6.10
2010,02,19,03,47,6.10
2010,02,19,03,49,6.10
2010,02,19,03,50,6.10
2010,02,19,03,51,6.00
2010,02,19,03,52,6.10
2010,02,19,03,54,6.10
2010,02,19,03,55,6.00
2010,02,19,03,56,6.00
2010,02,19,03,57,5.90
2010,02,19,03,59,5.90
2010,02,19,04,00,5.90
2010,02,19,04,01,5.80
2010,02,19,04,02,5.70
2010,02,19,04,03,5.70
2010,02,19,04,04,5.60
2010,02,19,04,06,5.60
2010,02,19,04,07,5.50
2010,02,19,04,08,5.40
2010,02,19,04,09,5.40
2010,02,19,04,12,5.30
2010,02,19,04,13,5.30
2010,02,19,04,14,5.30
2010,02,19,04,15,5.20
2010,02,19,04,16,5.20
2010,02,19,04,18,5.20
2010,02,19,04,20,5.10
2010,02,19,04,21,5.00
2010,02,19,04,22,5.00
2010,02,19,04,24,4.90
2010,02,19,04,25,4.90
2010,02,19,04,26,4.90
2010,02,19,04,27,4.90
2010,02,19,04,29,4.90
2010,02,19,04,30,4.90
2010,02,19,04,32,5.00
2010,02,19,04,33,5.00
2010,02,19,04,34,5.00
2010,02,19,04,35,5.10
2010,02,19,04,37,5.10
2010,02,19,04,38,5.10
2010,02,19,04,40,5.20
2010,02,19,04,41,5.30
2010,02,19,04,42,5.30
2010,02,19,04,44,5.30
2010,02,19,04,45,5.40
2010,02,19,04,46,5.40
2010,02,19,04,47,5.50
2010,02,19,04,48,5.50
2010,02,19,04,50,5.50
2010,02,19,04,51,5.40
2010,02,19,04,52,5.40
2010,02,19,04,53,5.40
2010,02,19,04,54,5.40
2010,02,19,04,56,5.30
2010,02,19,04,57,5.30
2010,02,19,04,58,5.30
2010,02,19,04,59,5.30
2010,02,19,05,02,5.20
2010,02,19,05,03,5.20
2010,02,19,05,04,5.20
2010,02,19,05,05,5.10
2010,02,19,05,07,5.10
2010,02,19,05,08,5.10
2010,02,19,05,10,5.00
2010,02,19,05,12,5.00
2010,02,19,05,13,4.90
2010,02,19,05,14,4.90
2010,02,19,05,15,4.90
2010,02,19,05,16,4.90
2010,02,19,05,18,4.90
2010,02,19,05,20,4.90
2010,02,19,05,21,4.80
2010,02,19,05,22,4.80
2010,02,19,05,24,4.80
2010,02,19,05,25,4.70
2010,02,19,05,26,4.70
2010,02,19,05,27,4.70
2010,02,19,05,28,4.70
2010,02,19,05,30,4.70
2010,02,19,05,32,4.60
2010,02,19,05,33,4.60
2010,02,19,05,34,4.60
2010,02,19,05,35,4.50
2010,02,19,05,37,4.50
2010,02,19,05,38,4.60
2010,02,19,05,40,4.60
2010,02,19,05,42,4.60
2010,02,19,05,43,4.60
2010,02,19,05,44,4.70
2010,02,19,05,45,4.70
2010,02,19,05,46,4.70
2010,02,19,05,48,4.70
2010,02,19,05,49,4.80
2010,02,19,05,50,4.80
2010,02,19,05,51,4.80
2010,02,19,05,52,4.90
2010,02,19,05,54,4.90
2010,02,19,05,55,5.00
2010,02,19,05,56,5.00
2010,02,19,05,57,5.00
2010,02,19,05,58,5.00
2010,02,19,06,00,5.00
2010,02,19,06,01,5.00
2010,02,19,06,02,4.90
2010,02,19,06,03,5.00
2010,02,19,06,04,5.00
2010,02,19,06,06,5.10
2010,02,19,06,07,5.10
2010,02,19,06,08,5.10
2010,02,19,06,10,5.10
2010,02,19,06,12,5.10
2010,02,19,06,13,5.10
2010,02,19,06,14,5.10
2010,02,19,06,15,5.20
2010,02,19,06,16,5.10
2010,02,19,06,17,5.10
2010,02,19,06,18,5.10
2010,02,19,06,20,5.10
2010,02,19,06,21,5.20
2010,02,19,06,23,5.30
2010,02,19,06,24,5.30
2010,02,19,06,25,5.40
2010,02,19,06,26,5.40
2010,02,19,06,28,5.40
2010,02,19,06,30,5.30
2010,02,19,06,31,5.30
2010,02,19,06,32,5.30
2010,02,19,06,33,5.20
2010,02,19,06,35,5.20
2010,02,19,06,36,5.10
2010,02,19,06,37,5.00
2010,02,19,06,38,5.00
2010,02,19,06,40,4.90
2010,02,19,06,41,4.80
2010,02,19,06,42,4.80
2010,02,19,06,43,4.80
2010,02,19,06,44,4.70
2010,02,19,06,45,4.70
2010,02,19,06,47,4.70
2010,02,19,06,48,4.60
2010,02,19,06,50,4.50
2010,02,19,06,52,4.40
2010,02,19,06,53,4.40
2010,02,19,06,54,4.30
2010,02,19,06,55,4.30
2010,02,19,06,57,4.30
2010,02,19,06,58,4.20
2010,02,19,07,00,4.20
2010,02,19,07,01,4.20
2010,02,19,07,03,4.20
2010,02,19,07,04,4.20
2010,02,19,07,05,4.20
2010,02,19,07,06,4.20
2010,02,19,07,07,4.20
2010,02,19,07,09,4.20
2010,02,19,07,10,4.10
2010,02,19,07,11,4.10
2010,02,19,07,12,4.00
2010,02,19,07,14,3.90
2010,02,19,07,15,3.90
2010,02,19,07,16,3.90
2010,02,19,07,17,3.90
2010,02,19,07,18,4.00
2010,02,19,07,20,4.10
2010,02,19,07,21,4.10
2010,02,19,07,22,4.10
2010,02,19,07,23,4.20
2010,02,19,07,24,4.20
2010,02,19,07,26,4.20
2010,02,19,07,27,4.30
2010,02,19,07,28,4.30
2010,02,19,07,29,4.30
2010,02,19,07,32,4.40
2010,02,19,07,33,4.40
2010,02,19,07,34,4.40
2010,02,19,07,35,4.40
2010,02,19,07,37,4.40
2010,02,19,07,38,4.40
2010,02,19,07,40,4.40
2010,02,19,07,41,4.50
2010,02,19,07,43,4.60
2010,02,19,07,44,4.60
2010,02,19,07,45,4.60
2010,02,19,07,46,4.60
2010,02,19,07,47,4.60
2010,02,19,07,49,4.60
2010,02,19,07,50,4.70
2010,02,19,07,51,4.80
2010,02,19,07,52,4.80
2010,02,19,07,53,4.90
2010,02,19,07,55,4.90
2010,02,19,07,56,5.00
2010,02,19,07,57,5.10
2010,02,19,07,58,5.20
2010,02,19,08,00,5.30
2010,02,19,08,02,5.40
2010,02,19,08,03,5.50
2010,02,19,08,04,5.60
2010,02,19,08,05,5.60
2010,02,19,08,07,5.70
2010,02,19,08,08,5.80
2010,02,19,08,10,5.90
2010,02,19,08,11,6.00
2010,02,19,08,13,6.10
2010,02,19,08,14,6.30
2010,02,19,08,15,6.30
2010,02,19,08,16,6.40
2010,02,19,08,17,6.50
2010,02,19,08,19,6.60
2010,02,19,08,20,6.60
2010,02,19,08,21,6.70
2010,02,19,08,22,6.80
2010,02,19,08,24,6.90
2010,02,19,08,25,7.00
2010,02,19,08,26,7.10
2010,02,19,08,27,7.20
2010,02,19,08,28,7.30
2010,02,19,08,30,7.30
2010,02,19,08,32,7.40
2010,02,19,08,33,7.50
2010,02,19,08,34,7.60
2010,02,19,08,35,7.60
2010,02,19,08,37,7.70
2010,02,19,08,38,7.70
2010,02,19,08,40,7.80
2010,02,19,08,41,7.90
2010,02,19,08,43,7.90
2010,02,19,08,44,7.90
2010,02,19,08,45,8.00
2010,02,19,08,46,8.10
2010,02,19,08,47,8.10
2010,02,19,08,49,8.10
2010,02,19,08,50,8.20
2010,02,19,08,51,8.20
2010,02,19,08,52,8.20
2010,02,19,08,53,8.20
2010,02,19,08,55,8.30
2010,02,19,08,56,8.30
2010,02,19,08,57,8.30
2010,02,19,08,58,8.30
2010,02,19,09,00,8.30
2010,02,19,09,02,8.40
2010,02,19,09,03,8.40
2010,02,19,09,04,8.40
2010,02,19,09,05,8.40
2010,02,19,09,06,8.40
2010,02,19,09,08,8.40
2010,02,19,09,10,8.40
2010,02,19,09,11,8.50
2010,02,19,09,12,8.60
2010,02,19,09,14,8.60
2010,02,19,09,15,8.60
2010,02,19,09,16,8.60
2010,02,19,09,17,8.60
2010,02,19,09,19,8.60
2010,02,19,09,20,8.60
2010,02,19,09,21,8.60
2010,02,19,09,22,8.60
2010,02,19,09,24,8.60
2010,02,19,09,25,8.60
2010,02,19,09,26,8.60
2010,02,19,09,27,8.70
2010,02,19,09,29,8.70
2010,02,19,09,30,8.70
2010,02,19,09,32,8.70
2010,02,19,09,33,8.70
2010,02,19,09,34,8.70
2010,02,19,09,35,8.70
2010,02,19,09,37,8.70
2010,02,19,09,38,8.80
2010,02,19,09,40,8.90
2010,02,19,09,42,8.90
2010,02,19,09,43,8.90
2010,02,19,09,44,9.00
2010,02,19,09,45,9.00
2010,02,19,09,47,9.00
2010,02,19,09,48,9.00
2010,02,19,09,50,9.10
2010,02,19,09,52,9.20
2010,02,19,09,53,9.30
2010,02,19,09,54,9.30
2010,02,19,09,55,9.30
2010,02,19,09,57,9.20
2010,02,19,09,58,9.30
2010,02,19,10,00,9.30
2010,02,19,10,02,9.30
2010,02,19,10,03,9.30
2010,02,19,10,04,9.30
2010,02,19,10,05,9.30
2010,02,19,10,06,9.30
2010,02,19,10,07,9.30
2010,02,19,10,09,9.30
2010,02,19,10,10,9.20
2010,02,19,10,11,9.10
2010,02,19,10,12,9.10
2010,02,19,10,14,9.10
2010,02,19,10,15,9.10
2010,02,19,10,16,9.00
2010,02,19,10,17,8.90
2010,02,19,10,19,8.90
2010,02,19,10,20,8.90
2010,02,19,10,21,8.90
2010,02,19,10,22,9.00
2010,02,19,10,24,9.00
2010,02,19,10,25,9.00
2010,02,19,10,26,9.00
2010,02,19,10,27,9.00
2010,02,19,10,29,9.00
2010,02,19,10,30,9.10
2010,02,19,10,31,9.10
2010,02,19,10,32,9.20
2010,02,19,10,33,9.20
2010,02,19,10,35,9.20
2010,02,19,10,36,9.30
2010,02,19,10,37,9.30
2010,02,19,10,38,9.40
2010,02,19,10,39,9.40
2010,02,19,10,42,9.40
2010,02,19,10,43,9.40
2010,02,19,10,44,9.40
2010,02,19,10,45,9.40
2010,02,19,10,47,9.40
2010,02,19,10,48,9.40
2010,02,19,10,49,9.40
2010,02,19,10,52,9.40
2010,02,19,10,53,9.40
2010,02,19,10,54,9.40
2010,02,19,10,55,9.40
2010,02,19,10,57,9.40
2010,02,19,10,58,9.40
2010,02,19,11,00,9.40
2010,02,19,11,02,9.50
2010,02,19,11,04,9.60
2010,02,19,11,05,9.70
2010,02,19,11,06,9.70
2010,02,19,11,07,9.70
2010,02,19,11,09,9.70
2010,02,19,11,10,9.70
2010,02,19,11,11,9.80
2010,02,19,11,12,9.80
2010,02,19,11,13,9.80
2010,02,19,11,15,9.80
2010,02,19,11,16,9.90
2010,02,19,11,17,9.90
2010,02,19,11,18,9.90
2010,02,19,11,19,10.10
2010,02,19,11,21,10.10
2010,02,19,11,22,10.10
2010,02,19,11,23,10.10
2010,02,19,11,24,10.00
2010,02,19,11,26,10.00
2010,02,19,11,27,10.00
2010,02,19,11,28,10.10
2010,02,19,11,29,10.10
2010,02,19,11,31,10.00
2010,02,19,11,33,9.90
2010,02,19,11,34,9.90
2010,02,19,11,35,9.90
2010,02,19,11,36,10.10
2010,02,19,11,37,10.10
2010,02,19,11,39,10.10
2010,02,19,11,40,10.10
2010,02,19,11,41,10.20
2010,02,19,11,42,10.20
2010,02,19,11,44,10.20
2010,02,19,11,45,10.20
2010,02,19,11,46,10.20
2010,02,19,11,47,10.20
2010,02,19,11,48,10.20
2010,02,19,11,50,10.20
2010,02,19,11,51,10.20
2010,02,19,11,52,10.20
2010,02,19,11,53,10.20
2010,02,19,11,54,10.20
2010,02,19,11,56,10.20
2010,02,19,11,57,10.30
2010,02,19,11,58,10.30
2010,02,19,11,59,10.30
2010,02,19,12,02,10.40
2010,02,19,12,03,10.30
2010,02,19,12,04,10.30
2010,02,19,12,06,10.40
2010,02,19,12,07,10.40
2010,02,19,12,08,10.40
2010,02,19,12,09,10.40
2010,02,19,12,12,10.40
2010,02,19,12,13,10.50
2010,02,19,12,14,10.50
2010,02,19,12,15,10.50
2010,02,19,12,17,10.50
2010,02,19,12,18,10.50
2010,02,19,12,20,10.60
2010,02,19,12,21,10.60
2010,02,19,12,23,10.60
2010,02,19,12,24,10.60
2010,02,19,12,25,10.50
2010,02,19,12,26,10.50
2010,02,19,12,27,10.60
2010,02,19,12,28,10.60
2010,02,19,12,30,10.60
2010,02,19,12,33,10.80
2010,02,19,12,34,10.80
2010,02,19,12,36,10.80
2010,02,19,12,37,10.80
2010,02,19,12,38,10.80
2010,02,19,12,40,10.80
2010,02,19,12,41,10.90
2010,02,19,12,43,10.90
2010,02,19,12,44,10.90
2010,02,19,12,45,11.00
2010,02,19,12,46,10.90
2010,02,19,12,47,10.90
2010,02,19,12,49,10.90
2010,02,19,12,50,10.90
2010,02,19,12,51,10.90
2010,02,19,12,52,10.90
2010,02,19,12,53,10.90
2010,02,19,12,55,11.00
2010,02,19,12,56,11.00
2010,02,19,12,57,11.10
2010,02,19,12,58,11.10
2010,02,19,12,59,11.10
2010,02,19,13,02,11.10
2010,02,19,13,03,11.10
2010,02,19,13,04,11.10
2010,02,19,13,06,11.10
2010,02,19,13,07,11.10
2010,02,19,13,08,11.20
2010,02,19,13,09,11.20
2010,02,19,13,11,11.20
2010,02,19,13,12,11.20
2010,02,19,13,13,11.30
2010,02,19,13,14,11.20
2010,02,19,13,16,11.20
2010,02,19,13,17,11.20
2010,02,19,13,18,11.20
2010,02,19,13,19,11.20
2010,02,19,13,22,11.20
2010,02,19,13,23,11.20
2010,02,19,13,24,11.30
2010,02,19,13,25,11.30
2010,02,19,13,27,11.40
2010,02,19,13,28,11.40
2010,02,19,13,30,11.40
2010,02,19,13,31,11.40
2010,02,19,13,32,11.40
2010,02,19,13,34,11.40
2010,02,19,13,35,11.40
2010,02,19,13,36,11.50
2010,02,19,13,37,11.50
2010,02,19,13,38,11.60
2010,02,19,13,40,11.50
2010,02,19,13,41,11.50
2010,02,19,13,42,11.60
2010,02,19,13,43,11.60
2010,02,19,13,44,11.60
2010,02,19,13,46,11.70
2010,02,19,13,47,11.70
2010,02,19,13,48,11.70
2010,02,19,13,49,11.70
2010,02,19,13,52,11.70
2010,02,19,13,53,11.70
2010,02,19,13,54,11.60
2010,02,19,13,55,11.60
2010,02,19,13,57,11.60
2010,02,19,13,58,11.70
2010,02,19,14,00,11.70
2010,02,19,14,01,11.70
2010,02,19,14,03,11.70
2010,02,19,14,04,11.70
2010,02,19,14,05,11.80
2010,02,19,14,06,11.70
2010,02,19,14,07,11.70
2010,02,19,14,08,11.70
2010,02,19,14,10,11.70
2010,02,19,14,11,11.70
2010,02,19,14,12,11.70
2010,02,19,14,13,11.80
2010,02,19,14,14,11.90
2010,02,19,14,16,11.90
2010,02,19,14,17,11.90
2010,02,19,14,18,11.90
2010,02,19,14,19,11.90
2010,02,19,14,22,11.90
2010,02,19,14,23,11.90
2010,02,19,14,24,12.00
2010,02,19,14,25,11.90
2010,02,19,14,27,11.90
2010,02,19,14,28,11.90
2010,02,19,14,30,11.90
2010,02,19,14,31,12.00
2010,02,19,14,32,12.00
2010,02,19,14,34,11.90
2010,02,19,14,35,11.90
2010,02,19,14,36,11.90
2010,02,19,14,37,12.00
2010,02,19,14,39,12.00
2010,02,19,14,40,12.10
2010,02,19,14,41,12.10
2010,02,19,14,42,12.10
2010,02,19,14,44,12.10
2010,02,19,14,46,12.10
2010,02,19,14,47,12.10
2010,02,19,14,48,12.10
2010,02,19,14,49,12.00
2010,02,19,14,51,12.00
2010,02,19,14,53,12.00
2010,02,19,14,54,12.10
2010,02,19,14,56,12.10
2010,02,19,14,57,12.10
2010,02,19,14,58,12.10
2010,02,19,15,00,12.10
2010,02,19,15,02,12.10
2010,02,19,15,03,12.10
2010,02,19,15,04,12.00
2010,02,19,15,05,12.10
2010,02,19,15,06,12.00
2010,02,19,15,08,12.00
2010,02,19,15,09,11.90
2010,02,19,15,10,11.90
2010,02,19,15,11,11.90
2010,02,19,15,13,11.90
2010,02,19,15,14,11.90
2010,02,19,15,15,11.90
2010,02,19,15,16,11.90
2010,02,19,15,17,11.90
2010,02,19,15,18,11.80
2010,02,19,15,20,11.80
2010,02,19,15,21,11.80
2010,02,19,15,22,11.80
2010,02,19,15,25,11.80
2010,02,19,15,27,11.80
2010,02,19,15,28,11.80
2010,02,19,15,30,11.80
2010,02,19,15,31,11.80
2010,02,19,15,33,11.80
2010,02,19,15,34,11.70
2010,02,19,15,35,11.80
2010,02,19,15,36,11.80
2010,02,19,15,38,11.80
2010,02,19,15,40,11.70
2010,02,19,15,41,11.70
2010,02,19,15,42,11.70
2010,02,19,15,43,11.70
2010,02,19,15,45,11.70
2010,02,19,15,46,11.70
2010,02,19,15,47,11.70
2010,02,19,15,48,11.70
2010,02,19,15,50,11.70
2010,02,19,15,51,11.70
2010,02,19,15,52,11.70
2010,02,19,15,53,11.70
2010,02,19,15,55,11.70
2010,02,19,15,56,11.70
2010,02,19,15,57,11.70
2010,02,19,15,58,11.70
2010,02,19,16,00,11.70
2010,02,19,16,02,11.70
2010,02,19,16,03,11.60
2010,02,19,16,04,11.60
2010,02,19,16,05,11.60
2010,02,19,16,06,11.60
2010,02,19,16,08,11.70
2010,02,19,16,09,11.60
2010,02,19,16,10,11.60
2010,02,19,16,11,11.60
2010,02,19,16,12,11.60
2010,02,19,16,14,11.60
2010,02,19,16,15,11.60
2010,02,19,16,16,11.60
2010,02,19,16,17,11.60
2010,02,19,16,19,11.60
2010,02,19,16,20,11.60
2010,02,19,16,21,11.50
2010,02,19,16,22,11.50
2010,02,19,16,23,11.50
2010,02,19,16,24,11.50
2010,02,19,16,26,11.50
2010,02,19,16,27,11.40
2010,02,19,16,28,11.40
2010,02,19,16,31,11.40
2010,02,19,16,32,11.40
2010,02,19,16,34,11.40
2010,02,19,16,35,11.40
2010,02,19,16,36,11.30
2010,02,19,16,37,11.30
2010,02,19,16,39,11.30
2010,02,19,16,40,11.30
2010,02,19,16,41,11.30
2010,02,19,16,42,11.30
2010,02,19,16,43,11.20
2010,02,19,16,45,11.20
2010,02,19,16,46,11.20
2010,02,19,16,47,11.20
2010,02,19,16,48,11.20
2010,02,19,16,50,11.20
2010,02,19,16,51,11.10
2010,02,19,16,52,11.10
2010,02,19,16,53,11.10
2010,02,19,16,54,11.10
2010,02,19,16,56,11.10
2010,02,19,16,57,11.00
2010,02,19,16,58,11.00
2010,02,19,16,59,10.90
2010,02,19,17,02,10.90
2010,02,19,17,03,10.90
2010,02,19,17,04,10.80
2010,02,19,17,05,10.80
2010,02,19,17,07,10.80
2010,02,19,17,08,10.70
2010,02,19,17,10,10.70
2010,02,19,17,11,10.70
2010,02,19,17,12,10.60
2010,02,19,17,14,10.60
2010,02,19,17,15,10.60
2010,02,19,17,16,10.60
2010,02,19,17,17,10.60
2010,02,19,17,18,10.60
2010,02,19,17,19,10.50
2010,02,19,17,22,10.40
2010,02,19,17,23,10.40
2010,02,19,17,24,10.40
2010,02,19,17,25,10.30
2010,02,19,17,26,10.30
2010,02,19,17,28,10.30
2010,02,19,17,30,10.20
2010,02,19,17,31,10.10
2010,02,19,17,32,10.10
2010,02,19,17,34,10.00
2010,02,19,17,35,9.90
2010,02,19,17,36,9.90
2010,02,19,17,37,9.80
2010,02,19,17,38,9.80
2010,02,19,17,40,9.80
2010,02,19,17,41,9.70
2010,02,19,17,42,9.70
2010,02,19,17,43,9.60
2010,02,19,17,44,9.60
2010,02,19,17,45,9.50
2010,02,19,17,47,9.40
2010,02,19,17,48,9.40
2010,02,19,17,50,9.30
2010,02,19,17,52,9.20
2010,02,19,17,53,9.20
2010,02,19,17,54,9.10
2010,02,19,17,55,9.10
2010,02,19,17,56,9.10
2010,02,19,17,58,9.10
2010,02,19,18,00,9.00
2010,02,19,18,01,8.90
2010,02,19,18,03,8.90
2010,02,19,18,04,8.90
2010,02,19,18,05,8.80
2010,02,19,18,06,8.80
2010,02,19,18,07,8.80
2010,02,19,18,09,8.80
2010,02,19,18,10,8.80
2010,02,19,18,11,8.70
2010,02,19,18,12,8.70
2010,02,19,18,14,8.70
2010,02,19,18,15,8.60
2010,02,19,18,16,8.60
2010,02,19,18,17,8.60
2010,02,19,18,18,8.50
2010,02,19,18,20,8.50
2010,02,19,18,21,8.40
2010,02,19,18,22,8.40
2010,02,19,18,23,8.40
2010,02,19,18,24,8.30
2010,02,19,18,26,8.30
2010,02,19,18,27,8.30
2010,02,19,18,28,8.20
2010,02,19,18,30,8.20
2010,02,19,18,31,8.20
2010,02,19,18,33,8.10
2010,02,19,18,34,8.10
2010,02,19,18,35,8.00
2010,02,19,18,36,7.90
2010,02,19,18,38,7.90
2010,02,19,18,40,7.70
2010,02,19,18,41,7.70
2010,02,19,18,43,7.60
2010,02,19,18,44,7.60
2010,02,19,18,45,7.60
2010,02,19,18,46,7.50
2010,02,19,18,48,7.50
2010,02,19,18,50,7.40
2010,02,19,18,51,7.40
2010,02,19,18,52,7.30
2010,02,19,18,54,7.30
2010,02,19,18,55,7.30
2010,02,19,18,56,7.30
2010,02,19,18,57,7.30
2010,02,19,18,59,7.20
2010,02,19,19,00,7.20
2010,02,19,19,02,7.20
2010,02,19,19,03,7.20
2010,02,19,19,05,7.10
2010,02,19,19,06,7.10
2010,02,19,19,07,7.10
2010,02,19,19,08,7.10
2010,02,19,19,09,7.10
2010,02,19,19,11,7.10
2010,02,19,19,12,7.10
2010,02,19,19,13,7.10
2010,02,19,19,14,7.10
2010,02,19,19,16,7.10
2010,02,19,19,17,7.10
2010,02,19,19,18,7.00
2010,02,19,19,19,6.90
2010,02,19,19,22,6.90
2010,02,19,19,23,6.80
2010,02,19,19,24,6.80
2010,02,19,19,25,6.80
2010,02,19,19,27,6.80
2010,02,19,19,28,6.80
2010,02,19,19,30,6.80
2010,02,19,19,31,6.80
2010,02,19,19,32,6.70
2010,02,19,19,33,6.70
2010,02,19,19,35,6.70
2010,02,19,19,36,6.70
2010,02,19,19,37,6.70
2010,02,19,19,38,6.70
2010,02,19,19,39,6.60
2010,02,19,19,42,6.60
2010,02,19,19,43,6.60
2010,02,19,19,44,6.50
2010,02,19,19,45,6.50
2010,02,19,19,47,6.40
2010,02,19,19,48,6.40
2010,02,19,19,49,6.30
2010,02,19,19,52,6.30
2010,02,19,19,53,6.20
2010,02,19,19,54,6.20
2010,02,19,19,55,6.20
2010,02,19,19,57,6.10
2010,02,19,19,58,6.10
2010,02,19,20,00,6.10
2010,02,19,20,02,5.90
2010,02,19,20,04,5.90
2010,02,19,20,05,5.80
2010,02,19,20,06,5.80
2010,02,19,20,07,5.80
2010,02,19,20,09,5.70
2010,02,19,20,10,5.70
2010,02,19,20,11,5.70
2010,02,19,20,12,5.60
2010,02,19,20,13,5.60
2010,02,19,20,14,5.60
2010,02,19,20,16,5.60
2010,02,19,20,17,5.50
2010,02,19,20,18,5.40
2010,02,19,20,19,5.40
2010,02,19,20,21,5.30
2010,02,19,20,22,5.30
2010,02,19,20,23,5.30
2010,02,19,20,24,5.20
2010,02,19,20,26,5.20
2010,02,19,20,27,5.20
2010,02,19,20,28,5.20
2010,02,19,20,30,5.20
2010,02,19,20,31,5.10
2010,02,19,20,32,5.10
2010,02,19,20,34,5.10
2010,02,19,20,35,5.10
2010,02,19,20,36,5.00
2010,02,19,20,37,4.90
2010,02,19,20,38,4.90
2010,02,19,20,40,4.90
2010,02,19,20,41,4.90
2010,02,19,20,42,4.90
2010,02,19,20,43,4.80
2010,02,19,20,44,4.80
2010,02,19,20,46,4.80
2010,02,19,20,47,4.80
2010,02,19,20,48,4.70
2010,02,19,20,49,4.70
2010,02,19,20,52,4.70
2010,02,19,20,53,4.60
2010,02,19,20,54,4.60
2010,02,19,20,55,4.60
2010,02,19,20,57,4.60
2010,02,19,20,58,4.60
2010,02,19,21,00,4.50
2010,02,19,21,02,4.50
2010,02,19,21,03,4.40
2010,02,19,21,04,4.40
2010,02,19,21,05,4.40
2010,02,19,21,07,4.30
2010,02,19,21,08,4.30
2010,02,19,21,10,4.20
2010,02,19,21,11,4.20
2010,02,19,21,13,4.20
2010,02,19,21,14,4.10
2010,02,19,21,15,4.10
2010,02,19,21,16,4.10
2010,02,19,21,17,4.10
2010,02,19,21,19,4.00
2010,02,19,21,20,3.90
2010,02,19,21,21,3.90
2010,02,19,21,22,3.90
2010,02,19,21,24,3.90
2010,02,19,21,25,3.90
2010,02,19,21,26,3.80
2010,02,19,21,27,3.80
2010,02,19,21,28,3.80
2010,02,19,21,30,3.80
2010,02,19,21,31,3.80
2010,02,19,21,32,3.80
2010,02,19,21,33,3.80
2010,02,19,21,34,3.70
2010,02,19,21,35,3.80
2010,02,19,21,37,3.80
2010,02,19,21,38,3.80
2010,02,19,21,40,3.80
2010,02,19,21,42,3.80
2010,02,19,21,43,3.90
2010,02,19,21,44,3.90
2010,02,19,21,45,4.00
2010,02,19,21,46,4.00
2010,02,19,21,48,4.10
2010,02,19,21,49,4.20
2010,02,19,21,50,4.20
2010,02,19,21,51,4.30
2010,02,19,21,52,4.40
2010,02,19,21,54,4.50
2010,02,19,21,55,4.60
2010,02,19,21,56,4.70
2010,02,19,21,57,4.80
2010,02,19,21,59,4.90
2010,02,19,22,00,4.90
2010,02,19,22,01,5.10
2010,02,19,22,02,5.10
2010,02,19,22,03,5.20
2010,02,19,22,05,5.30
2010,02,19,22,06,5.40
2010,02,19,22,07,5.60
2010,02,19,22,08,5.70
2010,02,19,22,09,5.80
2010,02,19,22,11,5.90
2010,02,19,22,12,5.90
2010,02,19,22,13,5.90
2010,02,19,22,14,6.00
2010,02,19,22,15,6.00
2010,02,19,22,17,6.00
2010,02,19,22,18,6.00
2010,02,19,22,20,6.00
2010,02,19,22,22,5.90
2010,02,19,22,23,5.90
2010,02,19,22,24,5.90
2010,02,19,22,25,5.90
2010,02,19,22,26,5.90
2010,02,19,22,28,6.00
2010,02,19,22,30,6.10
2010,02,19,22,31,6.10
2010,02,19,22,32,6.00
2010,02,19,22,34,6.00
2010,02,19,22,35,6.00
2010,02,19,22,36,6.00
2010,02,19,22,37,6.00
2010,02,19,22,38,6.00
2010,02,19,22,40,6.00
2010,02,19,22,41,5.90
2010,02,19,22,42,5.80
2010,02,19,22,43,5.80
2010,02,19,22,44,5.80
2010,02,19,22,46,5.80
2010,02,19,22,47,5.80
2010,02,19,22,48,5.70
2010,02,19,22,49,5.70
2010,02,19,22,52,5.60
2010,02,19,22,53,5.50
2010,02,19,22,54,5.40
2010,02,19,22,55,5.40
2010,02,19,22,57,5.40
2010,02,19,22,58,5.30
2010,02,19,22,59,5.30
2010,02,19,23,02,5.20
2010,02,19,23,03,5.10
2010,02,19,23,04,5.00
2010,02,19,23,05,4.90
2010,02,19,23,07,4.80
2010,02,19,23,08,4.70
2010,02,19,23,10,4.50
2010,02,19,23,11,4.30
2010,02,19,23,12,4.20
2010,02,19,23,14,4.10
2010,02,19,23,15,4.00
2010,02,19,23,16,3.90
2010,02,19,23,17,3.80
2010,02,19,23,19,3.80
2010,02,19,23,20,3.70
2010,02,19,23,21,3.60
2010,02,19,23,22,3.50
2010,02,19,23,23,3.40
2010,02,19,23,25,3.40
2010,02,19,23,26,3.30
2010,02,19,23,27,3.30
2010,02,19,23,28,3.20